Time,TemperatureF,DewpointF,PressureIn,WindDirection,WindDirectionDegrees,WindSpeedMPH,WindSpeedGustMPH,Humidity,HourlyPrecipIn,Conditions,Clouds,dailyrainin,SoftwareType,DateUTC
2013-03-12 00:01:00,20.0,20.0,-100.00,North,0,15.0,21.0,99,-99.99,,,-99.99,,2013-03-12 06:01:00,
2013-03-12 00:11:00,20.0,20.0,-100.00,North,355,16.0,23.0,99,-99.99,,,-99.99,,2013-03-12 06:11:00,
2013-03-12 00:21:00,20.0,20.0,-100.00,North,355,17.0,20.0,99,-99.99,,,-99.99,,2013-03-12 06:21:00,
2013-03-12 00:31:00,20.0,20.0,-100.00,North,350,16.0,20.0,99,-99.99,,,-99.99,,2013-03-12 06:31:00,
2013-03-12 00:42:00,20.0,20.0,-100.00,NNW,340,14.0,19.0,99,-99.99,,,-99.99,,2013-03-12 06:42:00,
2013-03-12 00:51:00,20.0,20.0,-100.00,NNW,345,13.0,17.0,99,-99.99,,,-99.99,,2013-03-12 06:51:00,
2013-03-12 01:01:00,19.0,19.0,-100.00,NNW,345,11.0,15.0,99,-99.99,,,-99.99,,2013-03-12 07:01:00,
2013-03-12 01:11:00,19.0,19.0,-100.00,North,355,12.0,16.0,99,-99.99,,,-99.99,,2013-03-12 07:11:00,
2013-03-12 01:21:00,19.0,19.0,-100.00,North,355,10.0,13.0,99,-99.99,,,-99.99,,2013-03-12 07:21:00,
2013-03-12 01:32:00,19.0,19.0,-100.00,North,0,10.0,12.0,99,-99.99,,,-99.99,,2013-03-12 07:32:00,
2013-03-12 01:41:00,19.0,19.0,-100.00,North,350,12.0,15.0,99,-99.99,,,-99.99,,2013-03-12 07:41:00,
2013-03-12 01:52:00,19.0,19.0,-100.00,North,0,11.0,16.0,99,-99.99,,,-99.99,,2013-03-12 07:52:00,
2013-03-12 02:01:00,19.0,19.0,-100.00,NNW,345,10.0,14.0,99,-99.99,,,-99.99,,2013-03-12 08:01:00,
2013-03-12 02:12:00,19.0,19.0,-100.00,North,350,10.0,12.0,99,-99.99,,,-99.99,,2013-03-12 08:12:00,
2013-03-12 02:21:00,19.0,19.0,-100.00,North,350,12.0,16.0,99,-99.99,,,-99.99,,2013-03-12 08:21:00,
2013-03-12 02:32:00,19.0,19.0,-100.00,North,355,11.0,14.0,99,-99.99,,,-99.99,,2013-03-12 08:32:00,
2013-03-12 02:41:00,19.0,19.0,-100.00,North,0,9.0,12.0,99,-99.99,,,-99.99,,2013-03-12 08:41:00,
2013-03-12 02:51:00,19.0,19.0,-100.00,NNW,345,7.0,10.0,99,-99.99,,,-99.99,,2013-03-12 08:51:00,
2013-03-12 03:02:00,19.0,19.0,-100.00,North,0,5.0,9.0,99,-99.99,,,-99.99,,2013-03-12 09:02:00,
2013-03-12 03:11:00,19.0,19.0,-100.00,NNE,25,4.0,7.0,99,-99.99,,,-99.99,,2013-03-12 09:11:00,
2013-03-12 03:21:00,19.0,19.0,-100.00,NW,320,2.0,5.0,99,-99.99,,,-99.99,,2013-03-12 09:21:00,
2013-03-12 03:32:00,19.0,19.0,-100.00,NW,325,1.0,2.0,99,-99.99,,,-99.99,,2013-03-12 09:32:00,
2013-03-12 03:41:00,19.0,19.0,-100.00,West,275,1.0,1.0,99,-99.99,,,-99.99,,2013-03-12 09:41:00,
2013-03-12 03:51:00,19.0,19.0,-100.00,WSW,250,2.0,3.0,99,-99.99,,,-99.99,,2013-03-12 09:51:00,
2013-03-12 04:02:00,19.0,19.0,-100.00,WSW,250,4.0,4.0,99,-99.99,,,-99.99,,2013-03-12 10:02:00,
2013-03-12 04:11:00,19.0,19.0,-100.00,WSW,245,2.0,4.0,99,-99.99,,,-99.99,,2013-03-12 10:11:00,
2013-03-12 04:22:00,19.0,19.0,-100.00,West,260,3.0,4.0,99,-99.99,,,-99.99,,2013-03-12 10:22:00,
2013-03-12 04:32:00,19.0,19.0,-100.00,West,270,2.0,3.0,99,-99.99,,,-99.99,,2013-03-12 10:32:00,
2013-03-12 04:41:00,19.0,19.0,-100.00,NNW,335,4.0,5.0,99,-99.99,,,-99.99,,2013-03-12 10:41:00,
2013-03-12 04:52:00,19.0,19.0,-100.00,North,0,3.0,5.0,99,-99.99,,,-99.99,,2013-03-12 10:52:00,
2013-03-12 05:01:00,18.0,18.0,-100.00,SW,230,2.0,3.0,99,-99.99,,,-99.99,,2013-03-12 11:01:00,
2013-03-12 05:11:00,18.0,18.0,-100.00,WNW,290,1.0,2.0,99,-99.99,,,-99.99,,2013-03-12 11:11:00,
2013-03-12 05:21:00,18.0,18.0,-100.00,South,175,3.0,4.0,99,-99.99,,,-99.99,,2013-03-12 11:21:00,
2013-03-12 05:32:00,18.0,18.0,-100.00,SW,220,3.0,4.0,99,-99.99,,,-99.99,,2013-03-12 11:32:00,
2013-03-12 05:42:00,18.0,18.0,-100.00,SSW,205,6.0,7.0,99,-99.99,,,-99.99,,2013-03-12 11:42:00,
2013-03-12 05:52:00,17.0,17.0,-100.00,SSW,210,6.0,9.0,99,-99.99,,,-99.99,,2013-03-12 11:52:00,
2013-03-12 06:02:00,17.0,17.0,-100.00,SSW,195,6.0,7.0,99,-99.99,,,-99.99,,2013-03-12 12:02:00,
2013-03-12 06:11:00,17.0,17.0,-100.00,South,190,6.0,7.0,99,-99.99,,,-99.99,,2013-03-12 12:11:00,
2013-03-12 06:21:00,16.0,16.0,-100.00,South,180,9.0,10.0,99,-99.99,,,-99.99,,2013-03-12 12:21:00,
2013-03-12 06:32:00,15.0,15.0,-100.00,SSW,200,8.0,10.0,99,-99.99,,,-99.99,,2013-03-12 12:32:00,
2013-03-12 06:41:00,16.0,16.0,-100.00,SSW,210,9.0,9.0,99,-99.99,,,-99.99,,2013-03-12 12:41:00,
2013-03-12 06:52:00,16.0,16.0,-100.00,SW,220,9.0,10.0,99,-99.99,,,-99.99,,2013-03-12 12:52:00,
2013-03-12 07:01:00,16.0,16.0,-100.00,SSW,210,11.0,12.0,99,-99.99,,,-99.99,,2013-03-12 13:01:00,
2013-03-12 07:11:00,16.0,16.0,-100.00,SW,225,10.0,11.0,99,-99.99,,,-99.99,,2013-03-12 13:11:00,
2013-03-12 07:21:00,16.0,16.0,-100.00,SSW,200,9.0,12.0,99,-99.99,,,-99.99,,2013-03-12 13:21:00,
2013-03-12 07:32:00,17.0,17.0,-100.00,SW,220,9.0,11.0,99,-99.99,,,-99.99,,2013-03-12 13:32:00,
2013-03-12 07:42:00,16.0,16.0,-100.00,South,190,7.0,10.0,99,-99.99,,,-99.99,,2013-03-12 13:42:00,
2013-03-12 07:52:00,16.0,16.0,-100.00,South,190,9.0,11.0,99,-99.99,,,-99.99,,2013-03-12 13:52:00,
2013-03-12 08:02:00,16.0,16.0,-100.00,SSW,200,14.0,15.0,99,-99.99,,,-99.99,,2013-03-12 14:02:00,
2013-03-12 08:11:00,17.0,17.0,-100.00,SSW,195,16.0,17.0,99,-99.99,,,-99.99,,2013-03-12 14:11:00,
2013-03-12 08:21:00,19.0,18.0,-100.00,SSW,195,16.0,17.0,96,-99.99,,,-99.99,,2013-03-12 14:21:00,
2013-03-12 08:32:00,20.0,19.0,-100.00,SSW,200,13.0,17.0,95,-99.99,,,-99.99,,2013-03-12 14:32:00,
2013-03-12 08:41:00,20.0,19.0,-100.00,South,190,12.0,15.0,95,-99.99,,,-99.99,,2013-03-12 14:41:00,
2013-03-12 08:52:00,19.0,18.0,-100.00,South,185,9.0,14.0,95,-99.99,,,-99.99,,2013-03-12 14:52:00,
2013-03-12 09:01:00,19.0,18.0,-100.00,South,185,7.0,11.0,95,-99.99,,,-99.99,,2013-03-12 15:01:00,
2013-03-12 09:11:00,20.0,19.0,-100.00,SSE,165,8.0,10.0,95,-99.99,,,-99.99,,2013-03-12 15:11:00,
2013-03-12 09:21:00,21.0,19.0,-100.00,South,180,10.0,12.0,93,-99.99,,,-99.99,,2013-03-12 15:21:00,
2013-03-12 09:32:00,22.0,20.0,-100.00,South,180,13.0,14.0,90,-99.99,,,-99.99,,2013-03-12 15:32:00,
2013-03-12 09:41:00,22.0,19.0,-100.00,South,180,15.0,17.0,87,-99.99,,,-99.99,,2013-03-12 15:41:00,
2013-03-12 09:52:00,22.0,19.0,-100.00,South,180,13.0,17.0,87,-99.99,,,-99.99,,2013-03-12 15:52:00,
2013-03-12 10:02:00,23.0,18.0,-100.00,South,180,14.0,17.0,83,-99.99,,,-99.99,,2013-03-12 16:02:00,
2013-03-12 10:11:00,23.0,19.0,-100.00,South,180,14.0,16.0,83,-99.99,,,-99.99,,2013-03-12 16:11:00,
2013-03-12 10:21:00,23.0,19.0,-100.00,South,185,13.0,16.0,83,-99.99,,,-99.99,,2013-03-12 16:21:00,
2013-03-12 10:32:00,24.0,19.0,-100.00,South,190,12.0,15.0,83,-99.99,,,-99.99,,2013-03-12 16:32:00,
2013-03-12 10:42:00,24.0,20.0,-100.00,South,180,10.0,14.0,83,-99.99,,,-99.99,,2013-03-12 16:42:00,
2013-03-12 10:52:00,25.0,20.0,-100.00,South,185,9.0,15.0,81,-99.99,,,-99.99,,2013-03-12 16:52:00,
2013-03-12 11:02:00,25.0,20.0,-100.00,South,185,12.0,13.0,80,-99.99,,,-99.99,,2013-03-12 17:02:00,
2013-03-12 11:11:00,25.0,20.0,-100.00,South,180,12.0,14.0,79,-99.99,,,-99.99,,2013-03-12 17:11:00,
2013-03-12 11:21:00,26.0,20.0,-100.00,SSE,165,11.0,15.0,79,-99.99,,,-99.99,,2013-03-12 17:21:00,
2013-03-12 11:33:00,26.0,21.0,-100.00,SE,145,13.0,15.0,79,-99.99,,,-99.99,,2013-03-12 17:33:00,
2013-03-12 11:42:00,26.0,21.0,-100.00,SE,140,15.0,18.0,79,-99.99,,,-99.99,,2013-03-12 17:42:00,
2013-03-12 11:52:00,26.0,21.0,-100.00,SE,145,15.0,18.0,78,-99.99,,,-99.99,,2013-03-12 17:52:00,
2013-03-12 12:02:00,27.0,21.0,-100.00,SSE,155,14.0,17.0,79,-99.99,,,-99.99,,2013-03-12 18:02:00,
2013-03-12 12:12:00,28.0,22.0,-100.00,SSE,165,12.0,16.0,80,-99.99,,,-99.99,,2013-03-12 18:12:00,
2013-03-12 12:22:00,28.0,22.0,-100.00,SSE,160,14.0,17.0,77,-99.99,,,-99.99,,2013-03-12 18:22:00,
2013-03-12 12:32:00,28.0,21.0,-100.00,South,180,15.0,18.0,74,-99.99,,,-99.99,,2013-03-12 18:32:00,
2013-03-12 12:42:00,29.0,21.0,-100.00,South,185,14.0,18.0,72,-99.99,,,-99.99,,2013-03-12 18:42:00,
2013-03-12 12:52:00,30.0,23.0,-100.00,South,175,10.0,17.0,73,-99.99,,,-99.99,,2013-03-12 18:52:00,
2013-03-12 13:02:00,30.0,22.0,-100.00,South,185,13.0,16.0,70,-99.99,,,-99.99,,2013-03-12 19:02:00,
2013-03-12 13:12:00,31.0,23.0,-100.00,SSE,160,11.0,16.0,71,-99.99,,,-99.99,,2013-03-12 19:12:00,
2013-03-12 13:22:00,31.0,24.0,-100.00,SSE,150,12.0,16.0,74,-99.99,,,-99.99,,2013-03-12 19:22:00,
2013-03-12 13:32:00,31.0,23.0,-100.00,SSE,155,13.0,19.0,72,-99.99,,,-99.99,,2013-03-12 19:32:00,
2013-03-12 13:43:00,31.0,24.0,-100.00,SSE,160,12.0,17.0,73,-99.99,,,-99.99,,2013-03-12 19:43:00,
2013-03-12 13:52:00,32.0,24.0,-100.00,SE,145,12.0,16.0,72,-99.99,,,-99.99,,2013-03-12 19:52:00,
2013-03-12 14:01:00,32.0,23.0,-100.00,SSE,160,11.0,14.0,67,-99.99,,,-99.99,,2013-03-12 20:01:00,
2013-03-12 14:11:00,33.0,22.0,-100.00,SE,140,11.0,14.0,64,-99.99,,,-99.99,,2013-03-12 20:11:00,
2013-03-12 14:22:00,33.0,22.0,-100.00,SSE,150,12.0,15.0,63,-99.99,,,-99.99,,2013-03-12 20:22:00,
2013-03-12 14:32:00,34.0,21.0,-100.00,SE,145,13.0,16.0,59,-99.99,,,-99.99,,2013-03-12 20:32:00,
2013-03-12 14:41:00,34.0,22.0,-100.00,SSE,155,12.0,16.0,59,-99.99,,,-99.99,,2013-03-12 20:41:00,
2013-03-12 14:52:00,35.0,22.0,-100.00,SE,135,14.0,18.0,59,-99.99,,,-99.99,,2013-03-12 20:52:00,
2013-03-12 15:02:00,35.0,23.0,-100.00,SE,135,15.0,19.0,61,-99.99,,,-99.99,,2013-03-12 21:02:00,
2013-03-12 15:11:00,36.0,24.0,-100.00,SE,130,14.0,19.0,62,-99.99,,,-99.99,,2013-03-12 21:11:00,
2013-03-12 15:21:00,35.0,24.0,-100.00,SE,145,13.0,21.0,62,-99.99,,,-99.99,,2013-03-12 21:21:00,
2013-03-12 15:32:00,36.0,23.0,-100.00,SE,135,17.0,19.0,58,-99.99,,,-99.99,,2013-03-12 21:32:00,
2013-03-12 15:42:00,37.0,24.0,-100.00,SE,125,15.0,19.0,59,-99.99,,,-99.99,,2013-03-12 21:42:00,
2013-03-12 15:52:00,36.0,23.0,-100.00,SE,135,16.0,19.0,56,-99.99,,,-99.99,,2013-03-12 21:52:00,
2013-03-12 16:02:00,38.0,23.0,-100.00,SSE,155,14.0,17.0,54,-99.99,,,-99.99,,2013-03-12 22:02:00,
2013-03-12 16:11:00,38.0,22.0,-100.00,SE,130,16.0,19.0,53,-99.99,,,-99.99,,2013-03-12 22:11:00,
2013-03-12 16:21:00,38.0,21.0,-100.00,SSE,150,16.0,19.0,50,-99.99,,,-99.99,,2013-03-12 22:21:00,
2013-03-12 16:32:00,38.0,20.0,-100.00,SE,140,14.0,20.0,47,-99.99,,,-99.99,,2013-03-12 22:32:00,
2013-03-12 16:41:00,38.0,20.0,-100.00,SE,135,13.0,17.0,46,-99.99,,,-99.99,,2013-03-12 22:41:00,
2013-03-12 16:52:00,38.0,20.0,-100.00,SE,130,13.0,17.0,47,-99.99,,,-99.99,,2013-03-12 22:52:00,
2013-03-12 17:02:00,38.0,19.0,-100.00,SE,130,14.0,17.0,45,-99.99,,,-99.99,,2013-03-12 23:02:00,
2013-03-12 17:11:00,39.0,20.0,-100.00,SSE,150,14.0,17.0,45,-99.99,,,-99.99,,2013-03-12 23:11:00,
2013-03-12 17:22:00,38.0,18.0,-100.00,SSE,150,14.0,16.0,43,-99.99,,,-99.99,,2013-03-12 23:22:00,
2013-03-12 17:34:00,39.0,19.0,-100.00,SSE,160,12.0,17.0,44,-99.99,,,-99.99,,2013-03-12 23:34:00,
2013-03-12 17:42:00,38.0,20.0,-100.00,SSE,155,14.0,17.0,46,-99.99,,,-99.99,,2013-03-12 23:42:00,
2013-03-12 17:52:00,37.0,19.0,-100.00,SSE,160,13.0,17.0,48,-99.99,,,-99.99,,2013-03-12 23:52:00,
2013-03-12 18:02:00,37.0,20.0,-100.00,SSE,165,13.0,16.0,50,-99.99,,,-99.99,,2013-03-13 00:02:00,
2013-03-12 18:11:00,38.0,21.0,-100.00,SSE,160,16.0,17.0,51,-99.99,,,-99.99,,2013-03-13 00:11:00,
2013-03-12 18:22:00,37.0,21.0,-100.00,SSE,155,14.0,17.0,51,-99.99,,,-99.99,,2013-03-13 00:22:00,
2013-03-12 18:32:00,37.0,21.0,-100.00,SSE,150,14.0,17.0,52,-99.99,,,-99.99,,2013-03-13 00:32:00,
2013-03-12 18:41:00,37.0,21.0,-100.00,SSE,155,13.0,17.0,52,-99.99,,,-99.99,,2013-03-13 00:41:00,
2013-03-12 18:52:00,35.0,21.0,-100.00,SSE,150,12.0,16.0,56,-99.99,,,-99.99,,2013-03-13 00:52:00,
2013-03-12 19:02:00,35.0,21.0,-100.00,SSE,155,13.0,16.0,56,-99.99,,,-99.99,,2013-03-13 01:02:00,
2013-03-12 19:11:00,35.0,22.0,-100.00,SSE,160,13.0,15.0,58,-99.99,,,-99.99,,2013-03-13 01:11:00,
2013-03-12 19:21:00,35.0,22.0,-100.00,SSE,165,14.0,17.0,58,-99.99,,,-99.99,,2013-03-13 01:21:00,
2013-03-12 19:31:00,35.0,22.0,-100.00,South,170,11.0,17.0,58,-99.99,,,-99.99,,2013-03-13 01:31:00,
2013-03-12 19:42:00,34.0,21.0,-100.00,South,170,9.0,17.0,59,-99.99,,,-99.99,,2013-03-13 01:42:00,
2013-03-12 19:52:00,34.0,21.0,-100.00,SE,140,14.0,15.0,58,-99.99,,,-99.99,,2013-03-13 01:52:00,
2013-03-12 20:02:00,33.0,21.0,-100.00,SE,145,14.0,17.0,61,-99.99,,,-99.99,,2013-03-13 02:02:00,
2013-03-12 20:11:00,33.0,21.0,-100.00,SSE,150,12.0,17.0,61,-99.99,,,-99.99,,2013-03-13 02:11:00,
2013-03-12 20:21:00,33.0,21.0,-100.00,SSE,160,12.0,16.0,59,-99.99,,,-99.99,,2013-03-13 02:21:00,
2013-03-12 20:31:00,32.0,20.0,-100.00,SE,140,9.0,12.0,61,-99.99,,,-99.99,,2013-03-13 02:31:00,
2013-03-12 20:42:00,33.0,20.0,-100.00,SSE,155,11.0,12.0,60,-99.99,,,-99.99,,2013-03-13 02:42:00,
2013-03-12 20:52:00,32.0,20.0,-100.00,SSE,160,11.0,12.0,61,-99.99,,,-99.99,,2013-03-13 02:52:00,
2013-03-12 21:01:00,32.0,20.0,-100.00,SSE,155,12.0,13.0,59,-99.99,,,-99.99,,2013-03-13 03:01:00,
2013-03-12 21:11:00,33.0,20.0,-100.00,SE,145,13.0,16.0,59,-99.99,,,-99.99,,2013-03-13 03:11:00,
2013-03-12 21:21:00,32.0,20.0,-100.00,South,175,9.0,12.0,61,-99.99,,,-99.99,,2013-03-13 03:21:00,
2013-03-12 21:31:00,31.0,20.0,-100.00,South,170,6.0,10.0,62,-99.99,,,-99.99,,2013-03-13 03:31:00,
2013-03-12 21:41:00,32.0,20.0,-100.00,SE,140,9.0,11.0,60,-99.99,,,-99.99,,2013-03-13 03:41:00,
2013-03-12 21:51:00,31.0,20.0,-100.00,SSE,150,10.0,12.0,62,-99.99,,,-99.99,,2013-03-13 03:51:00,
2013-03-12 22:02:00,32.0,20.0,-100.00,South,170,10.0,13.0,59,-99.99,,,-99.99,,2013-03-13 04:02:00,
2013-03-12 22:12:00,32.0,20.0,-100.00,South,170,11.0,13.0,60,-99.99,,,-99.99,,2013-03-13 04:12:00,
2013-03-12 22:21:00,31.0,21.0,-100.00,South,185,11.0,13.0,66,-99.99,,,-99.99,,2013-03-13 04:21:00,
2013-03-12 22:31:00,31.0,21.0,-100.00,SSW,195,11.0,12.0,65,-99.99,,,-99.99,,2013-03-13 04:31:00,
2013-03-12 22:42:00,32.0,21.0,-100.00,SSW,200,10.0,11.0,64,-99.99,,,-99.99,,2013-03-13 04:42:00,
2013-03-12 22:52:00,31.0,21.0,-100.00,South,180,12.0,13.0,64,-99.99,,,-99.99,,2013-03-13 04:52:00,
2013-03-12 23:01:00,31.0,21.0,-100.00,SSW,195,11.0,12.0,66,-99.99,,,-99.99,,2013-03-13 05:01:00,
2013-03-12 23:11:00,31.0,21.0,-100.00,SSW,195,11.0,12.0,65,-99.99,,,-99.99,,2013-03-13 05:11:00,
2013-03-12 23:22:00,31.0,21.0,-100.00,SSE,165,7.0,13.0,65,-99.99,,,-99.99,,2013-03-13 05:22:00,
2013-03-12 23:32:00,31.0,21.0,-100.00,South,185,8.0,15.0,66,-99.99,,,-99.99,,2013-03-13 05:32:00,
2013-03-12 23:42:00,33.0,21.0,-100.00,South,185,7.0,10.0,60,-99.99,,,-99.99,,2013-03-13 05:42:00,
2013-03-12 23:51:00,35.0,21.0,-100.00,SSE,150,4.0,12.0,57,-99.99,,,-99.99,,2013-03-13 05:51:00,